Temp
9 9 9 9 10 9 10 10 11 11 11 11 10 10 10 10 11 12 14 17 18 17 17 18 19 19 18 18 19 19 14 15 18 19 21 22 22 25 25 25 26 26 25 26 24
9 9 9 9 9 9 9 10 10 10 10 11 11 10 9 9 10 13 18 17 16 16 17 18 19 19 17 17 19 17 14 16 18 19 21 21 21 23 24 24 25 24 24 25 25
8 8 8 9 9 9 9 9 10 10 11 10 11 10 10 9 9 16 18 18 17 16 17 17 18 18 17 17 18 16 15 18 20 21 21 21 21 23 23 24 25 25 25 24 24
8 7 8 8 8 9 9 9 9 10 10 11 10 10 10 9 12 17 17 18 17 16 16 16 16 16 15 15 18 17 17 19 21 21 21 21 21 22 23 25 25 26 26 25 24
7 7 7 7 8 8 9 9 9 9 10 11 11 10 10 8 13 16 17 17 17 15 16 16 16 16 15 16 17 16 18 19 20 21 21 21 20 20 22 24 25 25 26 25 25
7 7 7 7 8 8 8 9 9 9 10 10 10 10 9 5 15 16 17 18 17 16 15 16 17 17 17 16 16 18 19 20 20 20 20 20 20 20 22 24 25 25 25 26 25
7 7 7 7 7 8 8 8 9 9 10 10 10 9 8 13 16 16 16 17 17 18 16 16 17 18 18 16 19 19 18 17 17 19 19 20 18 18 23 24 24 24 25 25 25
7 7 7 7 8 7 8 8 9 10 10 10 9 7 9 15 15 16 15 16 16 15 16 17 16 17 18 18 17 17 17 17 19 18 20 21 18 21 24 23 23 24 25 25 25
7 6 7 7 7 8 7 8 9 10 10 9 8 8 10 14 15 17 16 16 15 15 16 16 16 17 17 15 15 15 15 16 19 19 20 19 18 20 23 22 22 23 24 25 25
6 6 6 6 7 7 8 8 8 8 8 7 6 7 13 16 16 17 16 15 15 14 14 15 16 13 12 13 13 15 16 17 18 20 19 19 18 18 21 21 22 23 22 24 25
6 6 6 6 7 7 7 7 6 6 6 11 12 13 15 15 16 17 16 16 15 15 12 14 13 12 14 15 16 16 17 17 17 18 19 18 17 17 19 20 19 21 21 24 25
6 6 6 6 7 7 7 5 10 9 8 11 12 12 15 14 15 17 17 15 15 14 14 13 13 14 15 15 16 16 16 15 16 17 17 17 17 16 17 19 21 21 22 23 25
5 6 6 6 8 9 8 10 10 9 9 13 13 10 14 15 14 16 16 16 14 13 13 13 16 15 16 15 15 15 14 15 16 16 17 17 16 18 19 19 21 22 21 22 23
5 6 6 7 8 8 10 10 9 9 8 12 12 14 14 16 15 17 17 17 15 13 12 14 15 16 15 16 15 15 15 16 16 15 15 17 14 15 17 16 17 20 21 22 23
5 6 5 5 6 8 11 10 10 9 10 15 13 15 15 17 17 17 18 18 14 14 14 14 15 15 15 15 15 15 16 15 16 15 14 15 14 13 15 19 18 17 21 21 22
5 6 5 7 7 11 10 9 9 10 10 14 15 14 15 17 17 17 17 18 18 15 15 14 16 16 16 16 16 16 15 12 10 11 13 14 14 13 15 18 18 18 20 21 22
5 7 7 6 9 11 10 9 10 9 15 16 15 15 15 16 16 16 16 16 14 13 13 15 15 17 17 17 16 14 12 11 12 11 12 13 13 13 16 17 17 16 18 19 20
5 7 9 10 11 9 9 9 10 13 15 16 17 15 15 15 15 16 14 13 15 15 14 14 14 15 16 16 15 13 12 11 13 12 13 13 13 15 16 15 15 16 16 16 17
6 8 10 12 11 10 8 10 10 13 14 13 16 15 14 15 15 15 14 14 14 14 14 13 14 17 17 17 16 14 13 12 10 10 10 11 13 14 14 14 14 15 17 16 15
4 6 10 11 11 9 10 11 12 14 14 14 13 16 14 15 14 14 14 15 14 14 15 14 14 14 16 17 15 15 13 13 9 11 11 11 12 13 15 14 14 13 14 17 17
4 4 9 10 10 10 10 10 13 15 14 13 12 13 15 15 14 13 13 13 14 12 13 12 12 14 14 12 13 13 13 10 10 9 9 9 11 12 13 12 12 11 14 15 16
2 3 8 8 9 7 8 11 14 14 12 14 13 12 13 12 13 13 13 13 14 14 12 11 10 11 12 10 11 12 11 10 9 10 7 6 9 12 11 12 12 13 15 15 15
2 3 7 7 8 8 10 13 14 13 12 12 11 13 13 11 11 11 11 12 14 12 11 11 9 9 11 10 10 10 10 8 7 7 8 10 9 11 11 11 12 13 13 14 14
3 4 8 7 8 8 10 11 12 11 11 12 12 13 11 11 9 11 10 10 11 10 11 11 8 9 9 10 8 10 10 10 8 6 8 8 10 11 10 11 11 11 12 12 12
3 5 5 7 8 8 8 9 10 11 11 8 10 12 12 11 10 9 10 10 10 10 7 9 8 9 8 9 9 9 9 9 8 8 8 9 9 9 9 10 11 10 10 10 10
4 5 5 5 6 8 8 9 11 11 11 11 10 10 10 9 10 9 9 9 10 8 7 5 6 8 8 9 9 8 8 7 7 8 7 8 8 9 10 10 9 9 9 9 9
3 4 5 5 6 8 7 8 7 9 10 10 10 9 8 8 8 9 9 8 8 7 6 6 5 6 7 7 8 7 7 8 8 8 8 7 8 9 9 8 8 9 9 9 9
Height
1498 1495 1493 1490 1488 1485 1481 1478 1476 1475 1472 1471 1470 1469 1467 1467 1466 1465 1458 1465 1470 1477 1478 1482 1486 1492 1496 1496 1498 1498 1509 1512 1501 1499 1493 1491 1489 1488 1486 1483 1483 1483 1483 1484 1485
1496 1494 1492 1489 1487 1484 1481 1478 1475 1473 1472 1470 1468 1468 1465 1463 1461 1455 1452 1460 1468 1470 1473 1475 1479 1489 1492 1495 1496 1498 1506 1499 1489 1488 1489 1488 1490 1492 1488 1482 1484 1483 1483 1484 1486
1494 1492 1490 1488 1485 1483 1480 1477 1474 1472 1470 1468 1466 1465 1464 1461 1458 1442 1450 1455 1462 1467 1472 1474 1478 1485 1491 1494 1492 1491 1495 1486 1482 1485 1486 1487 1490 1492 1488 1483 1484 1485 1485 1486 1487
1491 1490 1487 1485 1483 1481 1478 1475 1472 1470 1467 1466 1465 1463 1462 1461 1459 1444 1447 1448 1456 1462 1467 1471 1477 1482 1485 1486 1487 1490 1484 1483 1477 1482 1486 1485 1487 1491 1489 1482 1484 1485 1487 1488 1488
1490 1488 1485 1483 1480 1478 1475 1473 1470 1467 1465 1462 1462 1462 1460 1460 1448 1446 1446 1447 1450 1456 1462 1465 1473 1476 1480 1481 1484 1485 1482 1481 1481 1482 1481 1481 1483 1485 1483 1482 1482 1483 1485 1487 1488
1487 1485 1482 1479 1477 1474 1472 1470 1468 1465 1462 1461 1460 1460 1459 1457 1446 1444 1444 1444 1446 1451 1458 1465 1469 1473 1477 1478 1478 1476 1477 1476 1476 1478 1480 1483 1478 1481 1478 1480 1481 1480 1481 1483 1486
1483 1480 1478 1475 1473 1471 1468 1466 1464 1462 1459 1458 1458 1457 1456 1442 1443 1443 1443 1443 1445 1448 1454 1462 1469 1472 1471 1472 1472 1475 1479 1474 1476 1474 1475 1476 1480 1479 1475 1477 1478 1479 1480 1481 1482
1479 1477 1474 1472 1469 1466 1464 1461 1459 1457 1455 1455 1455 1455 1447 1439 1439 1441 1442 1442 1447 1452 1457 1462 1467 1469 1468 1469 1472 1476 1478 1482 1469 1470 1469 1473 1485 1470 1470 1471 1473 1475 1476 1477 1479
1477 1473 1470 1467 1465 1462 1458 1457 1455 1452 1451 1452 1454 1453 1440 1435 1435 1438 1441 1443 1447 1452 1460 1462 1466 1468 1467 1471 1478 1478 1486 1482 1472 1463 1465 1471 1478 1466 1467 1468 1469 1469 1470 1471 1473
1474 1469 1466 1463 1460 1457 1454 1452 1450 1449 1449 1451 1451 1454 1434 1431 1431 1435 1440 1442 1446 1453 1459 1461 1462 1466 1466 1471 1487 1480 1481 1474 1472 1464 1465 1468 1471 1465 1462 1463 1464 1462 1462 1464 1466
1470 1467 1463 1459 1455 1452 1449 1448 1452 1449 1443 1434 1432 1429 1427 1430 1430 1434 1438 1443 1448 1452 1456 1456 1462 1467 1462 1462 1463 1466 1470 1471 1468 1463 1464 1466 1467 1461 1456 1459 1459 1455 1456 1458 1460
1463 1461 1457 1453 1450 1447 1444 1442 1440 1441 1435 1427 1428 1427 1425 1426 1429 1431 1436 1441 1443 1450 1450 1458 1461 1455 1456 1460 1462 1466 1470 1473 1467 1462 1466 1464 1465 1459 1455 1454 1454 1453 1452 1452 1454
1461 1456 1452 1448 1444 1440 1437 1437 1437 1438 1435 1420 1416 1419 1420 1424 1426 1426 1430 1435 1439 1447 1450 1456 1450 1450 1454 1460 1465 1469 1472 1471 1472 1465 1463 1463 1468 1459 1452 1451 1451 1452 1452 1452 1452
1456 1451 1449 1443 1442 1437 1434 1434 1434 1436 1438 1416 1412 1410 1415 1419 1421 1423 1426 1432 1437 1445 1450 1451 1446 1449 1455 1458 1463 1471 1463 1464 1468 1474 1485 1466 1490 1468 1459 1458 1452 1449 1450 1449 1449
1449 1445 1444 1441 1437 1433 1433 1431 1428 1434 1442 1403 1406 1406 1406 1413 1413 1418 1422 1428 1435 1438 1444 1450 1447 1450 1455 1455 1456 1463 1456 1462 1464 1472 1477 1476 1488 1473 1461 1456 1452 1448 1447 1448 1448
1443 1440 1436 1434 1431 1428 1430 1430 1432 1437 1435 1403 1399 1402 1407 1405 1410 1416 1420 1426 1430 1435 1438 1443 1441 1442 1445 1446 1449 1451 1458 1469 1476 1482 1489 1477 1480 1478 1465 1453 1449 1448 1447 1446 1446
1435 1432 1430 1429 1423 1425 1425 1428 1434 1435 1398 1397 1399 1399 1401 1405 1411 1414 1417 1423 1432 1446 1448 1443 1443 1440 1440 1446 1448 1454 1468 1491 1492 1495 1491 1474 1479 1470 1453 1449 1448 1448 1446 1445 1443
1427 1422 1418 1415 1418 1423 1425 1428 1428 1406 1397 1389 1390 1397 1403 1403 1408 1410 1418 1427 1425 1430 1442 1449 1456 1442 1438 1443 1451 1456 1463 1486 1490 1494 1485 1473 1477 1462 1450 1450 1449 1448 1446 1444 1442
1418 1411 1405 1405 1408 1414 1423 1422 1415 1402 1395 1398 1391 1399 1402 1400 1404 1408 1416 1421 1421 1423 1437 1446 1449 1434 1433 1433 1439 1453 1463 1458 1482 1488 1492 1479 1466 1454 1451 1451 1448 1447 1446 1446 1445
1414 1407 1397 1398 1403 1410 1415 1408 1403 1396 1395 1395 1399 1388 1400 1399 1403 1408 1414 1416 1419 1420 1421 1434 1446 1440 1435 1433 1438 1442 1448 1466 1477 1489 1489 1482 1476 1468 1454 1454 1452 1450 1450 1449 1449
1414 1407 1397 1395 1400 1406 1406 1404 1397 1394 1395 1396 1404 1398 1392 1395 1399 1407 1413 1417 1415 1421 1422 1431 1439 1444 1439 1449 1449 1449 1454 1462 1467 1479 1488 1494 1478 1456 1454 1454 1455 1454 1453 1454 1453
1415 1413 1398 1397 1401 1400 1401 1397 1395 1394 1396 1396 1394 1401 1395 1397 1401 1405 1410 1412 1413 1415 1428 1432 1442 1450 1451 1451 1448 1448 1454 1456 1474 1476 1489 1492 1479 1450 1451 1452 1454 1454 1453 1454 1453
1417 1411 1400 1398 1398 1398 1394 1391 1392 1394 1395 1397 1400 1394 1393 1400 1408 1409 1411 1415 1413 1417 1427 1432 1448 1457 1455 1455 1451 1456 1457 1462 1467 1472 1476 1477 1472 1450 1450 1452 1452 1452 1452 1452 1450
1420 1412 1401 1400 1396 1394 1394 1390 1390 1390 1393 1398 1397 1391 1397 1407 1408 1411 1416 1418 1417 1420 1422 1426 1448 1451 1459 1455 1458 1459 1458 1458 1466 1480 1473 1469 1461 1453 1449 1449 1448 1451 1451 1449 1449
1419 1412 1406 1402 1395 1396 1398 1394 1390 1392 1391 1400 1400 1388 1394 1408 1409 1416 1417 1420 1422 1424 1427 1434 1449 1451 1454 1454 1455 1457 1458 1460 1465 1466 1470 1461 1461 1457 1454 1452 1450 1449 1448 1448 1449
1419 1414 1409 1405 1402 1397 1395 1394 1388 1390 1394 1397 1399 1395 1396 1407 1407 1417 1417 1422 1426 1431 1436 1442 1457 1453 1455 1455 1456 1458 1456 1459 1461 1461 1463 1462 1459 1450 1447 1449 1449 1450 1451 1451 1451
1421 1416 1413 1408 1401 1394 1399 1399 1398 1394 1398 1395 1399 1397 1405 1412 1411 1414 1417 1422 1425 1432 1442 1446 1455 1461 1461 1463 1461 1464 1451 1452 1453 1454 1456 1463 1454 1448 1449 1449 1449 1450 1451 1450 1449
Wind_Speed
15 15 15 15 16 16 16 17 15 15 13 12 13 13 12 14 17 22 33 33 33 20 21 23 30 17 16 9 9 4 3 4 5 6 4 1 6 8 11 4 3 3 4 7 24
16 16 15 15 15 15 15 15 14 15 14 12 12 13 12 13 17 28 33 30 25 28 17 22 30 24 8 8 7 6 4 9 7 5 2 8 3 9 6 6 7 9 6 13 21
16 16 16 16 15 15 15 16 16 13 14 14 11 11 12 9 15 29 20 23 24 23 22 20 25 31 13 7 10 6 5 6 5 10 2 2 11 5 8 2 5 7 8 11 18
18 17 16 16 16 16 16 17 17 18 16 12 13 9 10 8 5 1 8 15 30 34 28 22 23 15 7 8 12 4 11 6 6 5 7 3 3 7 6 6 5 0 4 5 11
18 19 18 18 17 17 17 17 17 19 18 11 10 10 8 8 17 5 5 8 35 33 36 27 23 11 7 8 8 5 3 10 25 23 18 17 10 9 12 17 16 7 6 9 9
19 19 21 20 19 19 19 18 17 18 17 10 9 10 8 4 9 11 7 9 28 37 34 33 22 18 12 7 8 9 14 17 12 16 8 6 13 5 8 15 13 14 12 10 10
21 20 20 22 22 21 21 19 18 18 17 11 10 10 13 26 7 5 3 7 24 34 36 34 15 22 8 4 10 7 3 6 7 10 6 10 7 7 21 20 19 17 16 16 15
21 22 22 21 21 22 23 22 19 19 15 11 10 9 13 11 11 15 9 11 25 31 30 28 18 12 5 3 3 6 2 3 3 9 6 14 6 4 12 17 17 19 20 20 19
22 23 23 22 20 21 23 21 21 16 11 9 10 9 13 9 15 14 12 12 21 25 15 16 17 8 5 5 2 4 3 5 5 9 4 5 4 6 6 10 14 20 24 23 22
23 22 23 22 22 20 22 21 14 8 8 7 8 6 14 6 11 17 14 9 17 19 12 7 9 4 2 4 6 6 5 4 5 1 3 2 6 7 14 5 14 21 21 24 22
24 23 24 24 22 21 22 20 4 5 16 15 10 8 1 0 8 18 20 17 11 16 6 8 4 6 6 5 5 5 3 2 2 3 3 3 4 11 13 8 13 15 17 18 17
23 23 23 25 23 23 25 13 13 3 9 24 27 20 18 8 1 15 20 14 7 5 4 4 4 7 6 5 3 2 2 3 6 5 4 6 7 7 7 6 7 11 14 19 18
26 25 25 26 24 19 8 6 2 8 5 8 25 25 24 16 9 14 23 13 5 5 5 5 3 8 6 4 5 3 4 3 5 4 3 4 6 4 5 7 8 8 9 13 14
27 25 26 28 16 8 14 3 10 8 3 5 8 10 14 9 5 12 23 16 2 9 9 5 4 6 4 4 6 3 8 9 5 3 3 3 5 4 4 7 6 11 6 7 8
27 23 25 24 27 21 7 6 6 12 3 4 6 9 18 17 11 13 24 17 8 6 7 7 6 4 3 6 6 7 5 6 5 3 4 1 1 7 2 3 5 7 7 8 10
29 26 26 26 24 14 7 7 8 2 6 3 7 8 9 8 0 8 11 18 10 5 2 7 2 5 8 5 9 4 5 7 4 3 3 5 6 4 4 4 2 4 9 11 12
31 28 26 26 22 4 5 15 2 4 5 5 5 7 10 13 11 8 8 10 6 6 5 3 3 2 3 2 2 5 6 2 2 1 5 1 2 7 3 4 3 7 12 12 12
33 30 26 21 16 20 4 2 5 5 7 4 6 12 7 6 4 4 8 5 2 7 2 5 3 7 4 8 8 6 8 5 6 4 4 1 5 4 2 6 2 2 3 4 6
36 31 23 11 17 19 11 6 6 4 1 4 1 9 5 6 6 5 8 10 5 6 6 6 2 5 2 4 9 4 4 6 7 3 3 3 5 6 2 3 6 10 10 9 9
34 32 16 9 23 22 3 8 5 3 4 2 3 4 6 8 5 5 5 3 6 5 3 5 5 1 3 2 5 4 7 3 2 5 4 3 3 5 1 5 5 7 10 8 6
25 14 9 8 26 11 6 6 9 5 6 3 4 5 2 6 5 4 6 2 3 3 4 4 4 2 1 5 1 3 2 6 5 4 5 2 5 4 6 6 6 7 9 10 15
11 5 7 24 3 2 3 5 10 4 4 3 3 7 1 4 4 3 5 3 4 5 5 1 4 3 3 4 2 2 3 3 4 4 2 4 6 2 7 4 6 11 17 20 21
13 8 2 10 3 3 4 10 11 6 4 3 2 1 5 3 4 3 5 6 5 4 4 3 2 3 4 4 5 6 3 4 4 3 5 5 5 1 3 5 3 9 19 23 22
6 4 3 12 4 2 3 4 7 2 4 1 5 6 7 4 5 3 3 7 5 6 14 8 3 3 6 3 3 3 2 2 4 3 3 5 3 7 9 10 11 10 13 9 6
3 4 4 3 2 3 1 4 3 3 7 6 7 5 6 4 4 4 4 3 9 8 6 4 4 2 2 3 3 4 4 4 6 5 6 4 7 6 8 7 13 12 7 9 9
4 4 8 5 10 6 1 3 2 3 4 5 4 4 5 5 1 7 7 3 3 6 4 4 3 2 2 2 1 4 7 6 6 5 6 7 12 12 18 11 5 6 6 6 6
10 12 6 6 7 1 2 4 9 4 9 10 5 10 12 4 10 13 12 8 8 6 3 3 5 3 2 2 3 6 10 9 4 5 6 6 8 2 1 4 8 8 4 4 8
Wind_Direction
326 327 329 334 338 343 348 348 341 328 312 294 280 263 255 251 246 241 237 230 226 232 212 209 214 241 217 214 210 208 83 201 226 162 225 146 24 340 330 322 58 225 296 255 169
326 325 325 326 329 332 338 340 344 335 319 301 286 276 259 260 259 249 230 229 227 204 209 204 194 214 181 212 210 180 174 216 205 193 178 330 54 324 328 21 58 89 109 155 177
327 325 323 323 323 323 326 332 333 332 322 306 290 282 276 271 283 265 249 234 217 209 197 187 192 188 192 204 199 202 209 203 232 225 200 97 315 315 298 58 87 78 84 165 190
324 325 322 321 319 319 320 322 326 327 324 297 290 276 280 264 225 165 174 212 195 189 183 167 168 167 157 178 206 216 198 213 286 250 238 226 270 303 246 276 323 161 145 160 204
322 320 319 318 317 316 315 317 316 320 320 293 283 272 258 254 251 265 236 196 184 190 192 183 174 164 174 184 166 211 219 211 240 253 267 280 264 253 267 276 295 245 222 202 188
314 311 310 311 311 312 310 311 311 311 313 286 259 272 246 267 257 262 246 220 195 188 188 194 199 183 179 188 176 213 212 242 256 255 238 204 267 185 272 271 272 249 252 244 222
317 313 303 304 309 307 306 304 306 304 300 278 245 250 259 250 249 250 231 226 194 190 185 194 199 184 182 151 203 210 210 253 227 242 232 223 297 197 264 265 258 248 237 245 247
323 322 317 309 305 306 304 301 301 298 281 258 241 238 254 270 250 249 208 183 183 185 193 186 185 183 199 159 97 158 129 191 242 165 236 160 253 261 246 240 246 251 253 246 246
325 324 323 319 312 305 305 305 307 294 258 231 225 232 262 257 236 207 195 186 179 183 167 192 198 216 163 144 69 11 181 197 278 202 135 161 212 248 263 245 258 269 260 256 247
326 324 324 320 315 308 304 310 308 271 209 203 215 260 251 237 225 199 177 173 164 178 192 177 181 168 100 137 191 177 189 220 211 147 169 159 245 277 303 262 279 283 262 249 249
323 323 322 320 316 309 306 315 259 224 203 202 216 211 278 266 189 200 185 152 128 154 173 193 150 194 182 174 155 157 178 198 243 283 1 238 257 278 292 307 281 284 259 236 247
316 317 317 318 316 306 295 265 223 266 277 243 236 241 241 256 320 200 199 170 160 168 137 75 197 203 163 147 130 110 195 257 283 262 164 288 281 276 285 253 277 312 278 249 252
319 320 320 318 317 307 293 260 174 234 262 257 221 227 238 238 220 210 193 174 144 145 168 148 227 153 147 139 138 177 171 235 232 358 287 330 313 293 302 293 310 304 295 265 262
318 319 321 320 318 307 304 224 242 226 278 249 192 231 193 186 220 192 198 174 162 172 156 196 235 136 150 174 148 252 205 215 224 114 215 101 279 294 261 298 303 300 330 331 314
318 315 318 317 302 295 239 329 127 158 277 170 163 160 174 168 145 185 190 182 158 158 121 228 174 152 147 207 151 221 156 182 187 163 129 273 30 270 304 255 271 301 311 318 312
318 314 314 309 295 288 227 281 164 77 248 198 138 166 160 141 143 139 165 189 162 122 89 191 204 147 178 192 170 132 105 47 57 92 237 212 177 268 209 214 306 292 290 303 306
318 310 303 292 274 212 181 151 144 201 299 183 173 152 174 160 157 175 162 167 156 128 169 150 190 258 159 141 55 81 67 14 357 353 225 349 165 239 273 275 258 290 299 295 291
317 311 302 273 260 225 245 159 215 235 256 1 132 140 167 140 187 135 136 137 125 117 141 165 191 178 202 182 187 180 152 156 196 200 239 11 238 242 198 353 47 55 328 318 324
319 317 304 270 203 194 189 208 207 224 311 319 217 157 163 176 138 129 164 169 156 160 143 151 208 301 132 162 145 174 154 184 105 15 81 241 292 321 46 58 58 54 58 53 57
325 318 303 211 183 171 183 230 223 227 349 100 294 190 163 163 117 120 147 185 150 184 148 186 129 215 312 99 47 141 154 93 3 142 217 277 280 232 79 65 22 29 40 73 58
329 315 331 190 171 177 208 225 239 266 12 154 252 295 137 140 120 114 163 52 133 100 114 131 109 215 121 24 110 31 89 57 110 127 172 175 258 222 154 78 15 359 349 357 16
331 310 342 154 158 179 198 202 241 254 40 302 176 214 170 45 77 109 131 104 137 132 97 73 127 127 113 292 251 67 124 121 138 195 139 143 262 292 144 110 28 4 4 350 333
317 277 239 192 200 206 248 231 240 246 131 313 171 81 13 89 104 92 91 4 85 86 128 164 26 85 10 4 11 73 51 104 109 75 185 178 255 213 310 312 323 354 343 334 326
310 303 301 216 275 107 355 235 203 203 185 30 318 163 112 41 7 103 92 28 37 82 93 86 79 142 186 156 142 140 168 163 114 128 201 223 255 298 310 320 329 354 348 339 355
254 270 354 311 298 330 84 299 198 184 113 103 282 68 120 136 70 98 82 96 34 25 52 86 115 91 121 127 136 192 219 201 198 199 186 244 235 253 261 276 304 325 80 84 63
277 314 334 292 316 251 220 28 257 110 18 159 163 22 65 103 169 167 122 95 156 32 59 24 117 104 73 15 282 268 248 218 228 246 263 267 279 252 266 273 191 143 120 78 34
330 343 328 324 314 227 38 24 324 142 22 61 92 88 75 93 87 91 84 93 137 130 115 96 129 103 208 18 309 285 234 215 187 196 175 199 233 223 185 194 172 163 135 21 348